Weather History for Fitchburg, MA

Change the Weather History Date:

Wednesday, May 1, 2013

  Actual Average (KORH) Record (KORH)
Temperature  
Mean Temperature 55 °F 52 °F  
Max Temperature 73 °F 61 °F 90 °F (1899)
Min Temperature 37 °F 42 °F 29 °F (1978)
Degree Days  
Heating Degree Days 10 13  
Month to date heating degree days 13  
Since 1 July heating degree days 6360  
Cooling Degree Days 0 0  
Month to date cooling degree days 0  
Year to date cooling degree days 3  
Growing Degree Days 5 (Base 50)    
Moisture  
Dew Point 30 °F    
Average Humidity 41    
Maximum Humidity 76    
Minimum Humidity 18    
Precipitation  
Precipitation 0.00 in 0.12 in 1.39 in (1953)
Month to date precipitation 0.12  
Year to date precipitation 15.16  
Sea Level Pressure  
Sea Level Pressure 30.44 in    
Wind  
Wind Speed 2 mph (East)    
Max Wind Speed 10 mph    
Max Gust Speed 16 mph    
Visibility 10 miles    
Events      
T = Trace of Precipitation, MM = Missing Value Source: NWS Daily Summary

Daily Weather History Graph

Daily Weather History Graph

Search for Another Location

Airport:

Trip Planner

Search our weather history database for the weather conditions in past years. The results will help you decide how hot, cold, wet, or windy it might be!

Date:

Astronomy

May. 01, 2013 Rise Set
Actual Time 5:41 AM EDT 7:47 PM EDT
Civil Twilight 5:10 AM EDT 8:18 PM EDT
Nautical Twilight 4:33 AM EDT 8:56 PM EDT
Astronomical Twilight 3:51 AM EDT 9:37 PM EDT
Moon 12:55 AM EDT (5/1) 11:16 AM EDT (5/1)
Length of Visible Light 15h 07m
Length of Day
14h 05m
Waning Gibbous, 59% of the Moon is Illuminated
May 1
Waning Gibbous
May 2
Last Quarter
May 9
New
May 18
First Quarter
May 25
Full

Hourly Weather History & Observations

Time (EDT) Temp. Windchill Dew Point Humidity Pressure Visibility Wind Dir Wind Speed Gust Speed Precip Events Conditions
12:52 AM 46.9 °F - 28.9 °F 50% 30.38 in 10.0 mi Calm Calm - N/A   Clear
1:52 AM 43.0 °F - 30.0 °F 60% 30.38 in 10.0 mi Calm Calm - N/A   Clear
2:52 AM 41.0 °F - 30.9 °F 67% 30.40 in 10.0 mi Calm Calm - N/A   Clear
3:52 AM 39.0 °F 36.8 °F 30.9 °F 73% 30.42 in 10.0 mi NW 3.5 mph - N/A   Clear
4:52 AM 37.9 °F 35.5 °F 30.9 °F 76% 30.43 in 10.0 mi NNW 3.5 mph - N/A   Clear
5:52 AM 37.9 °F - 30.9 °F 76% 30.43 in 10.0 mi Calm Calm - N/A   Clear
6:52 AM 42.1 °F - 32.0 °F 67% 30.45 in 10.0 mi Calm Calm - N/A   Clear
7:52 AM 50.0 °F - 33.1 °F 52% 30.47 in 10.0 mi Calm Calm - N/A   Clear
8:52 AM 57.0 °F - 28.0 °F 33% 30.47 in 10.0 mi Calm Calm - N/A   Clear
9:52 AM 62.1 °F - 25.0 °F 24% 30.48 in 10.0 mi ESE 4.6 mph - N/A   Clear
10:52 AM 64.9 °F - 26.1 °F 23% 30.48 in 10.0 mi Variable 5.8 mph - N/A   Clear
11:52 AM 66.9 °F - 26.1 °F 21% 30.46 in 10.0 mi NE 4.6 mph - N/A   Clear
12:52 PM 71.1 °F - 28.0 °F 20% 30.44 in 10.0 mi NE 4.6 mph - N/A   Clear
1:52 PM 72.0 °F - 28.0 °F 20% 30.43 in 10.0 mi Calm Calm - N/A   Clear
2:52 PM 73.0 °F - 27.0 °F 18% 30.43 in 10.0 mi Variable 6.9 mph - N/A   Clear
3:52 PM 72.0 °F - 30.0 °F 21% 30.42 in 10.0 mi SE 9.2 mph 16.1 mph N/A   Clear
4:52 PM 71.1 °F - 28.0 °F 20% 30.43 in 10.0 mi ESE 9.2 mph - N/A   Clear
5:52 PM 70.0 °F - 28.9 °F 22% 30.43 in 10.0 mi ESE 10.4 mph - N/A   Clear
6:52 PM 68.0 °F - 28.0 °F 22% 30.45 in 10.0 mi ESE 8.1 mph - N/A   Clear
7:52 PM 64.0 °F - 28.0 °F 26% 30.46 in 10.0 mi SE 5.8 mph - N/A   Clear
8:52 PM 61.0 °F - 28.9 °F 30% 30.47 in 10.0 mi SSE 3.5 mph - N/A   Clear
9:52 PM 52.0 °F - 33.1 °F 49% 30.48 in 10.0 mi Calm Calm - N/A   Clear
10:52 PM 52.0 °F - 33.1 °F 49% 30.47 in 10.0 mi Calm Calm - N/A   Clear
11:52 PM 48.9 °F - 35.1 °F 59% 30.46 in 10.0 mi Calm Calm - N/A   Clear